Temp
41 41 40 41 41 42 41 40 37 32 35 41 41 46 45 45 47 44 45 44 42 43 44 44 45 46 46 46 46 47 48 49 50 51 53 55 57 58
41 39 38 39 40 41 40 40 39 36 33 41 41 44 44 49 47 44 46 44 41 42 42 42 42 43 43 44 44 45 46 47 47 48 49 51 54 57
39 38 37 39 38 38 38 39 38 37 32 36 41 42 41 40 42 43 45 42 40 41 41 40 40 40 40 40 41 42 43 44 44 44 46 49 52 54
37 36 35 39 35 35 35 36 36 36 34 32 37 39 38 38 38 39 44 44 41 41 41 40 39 39 38 38 39 39 40 41 42 42 42 44 47 50
36 33 31 31 29 30 32 33 33 37 35 33 33 36 36 35 35 37 41 39 43 41 39 39 39 38 37 37 37 38 38 39 40 40 40 40 42 44
34 32 29 26 25 25 30 28 30 30 32 32 33 33 30 30 31 29 31 35 32 37 38 37 38 38 37 36 37 36 37 37 38 39 39 38 39 40
33 32 30 30 29 27 25 23 24 25 28 28 28 28 25 23 23 27 29 30 29 29 30 34 35 32 32 35 35 35 35 35 36 37 38 38 37 38
30 30 29 28 29 28 28 28 25 19 21 22 23 20 21 19 22 24 26 26 28 28 26 30 32 31 30 31 36 35 35 35 35 36 36 37 37 36
25 26 28 26 25 26 28 29 27 26 25 21 17 15 17 18 21 23 25 25 24 23 26 27 29 30 30 32 36 35 35 35 35 35 35 35 35 35
21 20 19 16 17 20 19 18 16 15 15 20 14 12 15 18 22 25 25 28 24 22 22 17 22 25 29 29 35 34 35 35 35 35 35 34 35 35
18 16 15 13 25 27 15 13 12 12 25 26 26 29 29 29 27 23 21 23 23 15 20 15 20 23 28 25 27 33 33 34 35 35 36 35 35 34
21 17 25 17 25 25 12 12 10 10 13 18 20 21 25 22 28 19 20 17 17 12 17 17 20 22 20 22 24 24 25 32 32 33 35 35 33 29
23 19 13 24 24 24 22 11 10 16 19 20 19 20 19 19 17 17 17 15 13 9 16 16 17 19 20 16 19 23 25 23 25 26 32 35 32 30
21 16 13 23 23 23 19 24 26 22 20 17 16 16 15 15 17 20 18 17 15 14 16 17 14 16 16 11 14 21 22 23 24 23 25 32 32 31
16 20 21 21 21 21 24 25 20 17 17 15 14 13 14 17 20 21 21 22 21 18 20 18 16 15 15 12 12 16 17 19 22 23 24 27 25 24
15 14 13 17 14 14 17 19 16 15 15 15 16 17 18 18 17 19 18 19 17 17 20 19 18 17 13 14 15 11 17 14 19 21 21 24 26 24
18 14 13 15 17 16 16 17 16 17 15 14 14 16 17 20 20 21 22 21 16 15 14 20 23 21 15 12 8 8 9 9 15 18 19 19 22 23
20 19 16 16 16 18 17 16 16 16 18 19 16 19 19 19 21 22 23 19 16 18 17 17 18 18 19 19 21 9 8 8 10 16 15 9 11 17
17 20 18 19 18 20 19 18 14 16 23 18 15 14 17 20 19 21 20 20 20 21 21 22 20 16 8 3 17 25 11 11 12 11 14 12 7 15
18 20 19 19 20 19 19 18 17 15 14 15 12 11 10 16 15 17 17 13 16 21 21 21 19 18 12 5 6 13 28 14 11 10 10 12 12 24
21 21 19 19 19 19 17 16 14 11 10 10 11 11 7 13 12 13 13 10 11 19 17 17 20 18 23 21 6 9 17 28 25 17 14 8 8 10
18 19 19 18 17 17 16 15 13 9 12 12 9 8 7 10 9 10 10 9 14 14 17 19 22 22 21 19 15 7 15 17 25 28 26 20 8 1
18 18 17 17 17 17 18 15 15 14 12 11 10 10 5 7 11 10 10 11 14 14 16 15 17 19 18 19 15 12 15 13 19 19 19 26 25 25
MSLP
1023.07 1023.11 1022.98 1022.95 1022.91 1022.85 1022.34 1022.34 1022.64 1022.56 1021.84 1020.95 1021.04 1020.58 1020.54 1020.62 1020.79 1020.85 1021.00 1020.89 1020.61 1020.01 1019.24 1018.70 1018.26 1017.65 1017.41 1017.27 1016.80 1016.15 1015.58 1015.05 1014.54 1013.99 1013.46 1012.88 1012.54 1012.58
1023.42 1023.62 1023.38 1023.62 1023.25 1022.83 1022.93 1022.69 1022.77 1022.75 1022.39 1021.87 1021.51 1021.12 1020.85 1020.78 1020.97 1021.07 1021.10 1021.20 1021.18 1020.61 1020.06 1019.87 1019.28 1018.66 1018.19 1018.01 1017.60 1016.89 1016.23 1015.71 1015.13 1014.57 1013.91 1013.28 1012.76 1012.64
1023.57 1023.93 1024.11 1024.08 1023.99 1023.89 1023.27 1022.99 1023.02 1022.93 1022.75 1022.34 1021.88 1021.38 1021.27 1021.48 1021.40 1021.37 1021.21 1021.37 1021.73 1021.17 1020.92 1020.57 1020.13 1019.71 1019.22 1018.98 1018.59 1017.70 1017.02 1016.39 1015.78 1015.24 1014.43 1013.54 1012.94 1012.31
1023.96 1024.33 1024.69 1024.36 1024.78 1025.09 1024.15 1023.56 1023.50 1023.26 1022.99 1022.64 1022.26 1021.83 1022.08 1022.17 1022.03 1021.82 1021.38 1021.46 1021.71 1021.68 1021.34 1021.09 1020.81 1020.14 1019.88 1019.62 1019.37 1018.75 1017.97 1017.13 1016.49 1015.97 1015.13 1014.30 1013.42 1012.45
1024.86 1025.53 1025.83 1025.57 1026.06 1026.24 1025.17 1024.41 1024.24 1023.85 1023.26 1022.91 1022.67 1022.36 1022.65 1023.00 1022.80 1022.36 1021.84 1021.94 1021.90 1021.92 1021.44 1021.22 1021.09 1020.90 1020.65 1020.54 1020.33 1019.63 1018.79 1018.13 1017.28 1016.78 1016.31 1015.69 1014.96 1014.21
1025.42 1026.11 1026.58 1026.81 1027.32 1027.11 1026.04 1025.71 1025.34 1024.70 1023.88 1023.56 1023.26 1023.37 1023.93 1024.36 1024.07 1023.63 1022.72 1022.72 1022.98 1022.36 1021.70 1021.68 1021.47 1021.40 1021.24 1021.41 1021.01 1020.43 1019.81 1019.22 1018.37 1017.51 1017.07 1016.60 1016.02 1015.61
1025.88 1026.17 1026.91 1027.18 1027.64 1027.60 1027.11 1026.76 1026.37 1025.81 1025.21 1024.82 1024.70 1024.88 1025.36 1025.44 1025.07 1024.31 1023.50 1023.05 1023.58 1023.11 1022.48 1022.30 1021.92 1021.87 1022.13 1022.26 1021.47 1021.15 1020.68 1020.15 1019.30 1018.48 1017.94 1017.55 1017.19 1016.97
1026.26 1026.73 1027.21 1027.63 1027.56 1027.51 1027.26 1027.12 1027.06 1026.86 1026.68 1026.35 1026.27 1026.52 1026.53 1026.55 1025.96 1025.16 1024.13 1023.47 1023.11 1023.33 1023.53 1022.90 1022.41 1022.64 1022.85 1022.42 1022.25 1021.97 1021.69 1020.96 1019.96 1019.44 1018.97 1018.50 1018.13 1017.94
1027.08 1027.63 1027.84 1028.07 1028.05 1027.43 1027.05 1027.02 1027.32 1027.51 1027.53 1027.55 1027.67 1027.81 1027.53 1027.21 1026.49 1025.47 1024.43 1024.06 1024.21 1024.64 1023.86 1023.56 1023.12 1022.91 1023.20 1022.87 1022.42 1022.42 1022.23 1021.45 1020.67 1020.39 1019.93 1019.49 1019.23 1018.90
1028.03 1028.53 1028.68 1028.76 1028.41 1027.95 1027.68 1027.72 1028.07 1028.49 1028.38 1028.12 1028.30 1028.21 1027.78 1027.37 1026.61 1025.59 1024.80 1023.87 1024.56 1025.01 1024.94 1024.54 1023.64 1023.22 1023.21 1023.13 1022.84 1022.92 1022.44 1021.68 1021.46 1021.16 1020.75 1020.12 1019.66 1019.38
1028.65 1028.96 1029.16 1029.08 1028.07 1027.63 1027.89 1028.16 1028.46 1028.45 1027.90 1027.91 1027.83 1027.50 1027.31 1027.08 1026.69 1026.05 1025.34 1024.89 1024.94 1025.97 1025.87 1025.70 1024.57 1023.96 1023.48 1023.83 1023.69 1023.31 1022.98 1022.44 1022.12 1021.65 1021.19 1020.83 1020.50 1020.39
1028.77 1029.04 1028.74 1028.89 1028.34 1028.15 1028.57 1028.50 1028.96 1028.72 1028.29 1027.94 1027.92 1027.83 1027.53 1027.49 1027.14 1027.08 1026.89 1026.67 1026.35 1026.59 1026.64 1026.35 1025.34 1024.81 1024.22 1024.24 1024.44 1024.33 1024.06 1023.42 1022.97 1022.53 1022.10 1021.47 1021.36 1021.37
1028.27 1029.12 1029.44 1028.80 1028.57 1028.61 1028.62 1029.14 1028.85 1028.71 1028.32 1028.23 1028.21 1028.18 1027.97 1027.84 1027.70 1027.42 1027.51 1027.54 1027.32 1027.37 1027.25 1026.53 1026.31 1025.75 1025.32 1025.24 1025.17 1025.13 1024.87 1024.54 1024.01 1023.50 1022.70 1022.08 1022.05 1022.06
1028.32 1029.17 1029.57 1029.05 1028.93 1028.97 1029.11 1028.66 1028.31 1028.12 1028.38 1028.45 1028.48 1028.53 1028.37 1028.18 1027.76 1027.39 1027.42 1027.51 1027.53 1027.51 1027.28 1026.92 1026.92 1026.71 1026.42 1026.39 1026.27 1025.73 1025.16 1024.95 1024.45 1024.03 1023.40 1022.94 1022.78 1022.85
1028.69 1028.95 1029.29 1029.23 1029.26 1029.22 1029.04 1028.80 1028.84 1028.80 1028.66 1028.89 1028.99 1028.88 1028.58 1028.22 1027.74 1027.35 1027.06 1027.30 1027.43 1027.42 1027.15 1027.03 1027.25 1027.15 1026.95 1027.20 1027.21 1026.80 1026.11 1025.60 1025.23 1024.78 1024.20 1023.79 1023.65 1023.84
1028.97 1029.39 1029.43 1029.11 1029.27 1029.34 1029.29 1029.30 1029.40 1029.39 1029.09 1029.17 1029.06 1028.81 1028.46 1028.03 1028.08 1027.82 1027.54 1027.49 1027.43 1027.45 1027.29 1026.99 1026.80 1027.14 1027.26 1027.24 1027.44 1027.51 1027.21 1027.03 1026.34 1025.66 1025.04 1024.58 1024.22 1024.30
1028.58 1029.16 1029.26 1029.10 1029.22 1029.19 1029.23 1029.39 1029.43 1029.25 1029.15 1029.20 1029.14 1028.93 1028.74 1028.49 1028.32 1028.15 1027.92 1027.75 1027.88 1027.71 1027.64 1027.42 1027.14 1027.20 1027.49 1027.52 1027.71 1027.70 1027.78 1027.54 1027.13 1026.53 1025.81 1025.47 1025.01 1024.82
1028.19 1028.29 1028.39 1028.47 1028.61 1028.89 1029.12 1029.33 1029.43 1029.40 1029.30 1029.30 1029.44 1029.29 1029.09 1028.98 1028.70 1028.61 1028.47 1028.29 1028.16 1027.96 1027.86 1027.73 1027.78 1027.61 1027.63 1027.57 1027.54 1027.85 1027.77 1027.69 1027.46 1027.08 1026.82 1026.57 1026.20 1025.67
1027.94 1027.80 1028.03 1028.24 1028.41 1028.52 1028.80 1029.11 1029.73 1029.61 1029.20 1029.64 1029.84 1029.90 1029.70 1029.40 1029.27 1029.08 1029.16 1029.11 1028.77 1028.40 1028.09 1028.01 1028.24 1028.42 1028.28 1028.21 1027.77 1027.45 1027.86 1027.69 1027.47 1027.25 1026.98 1026.74 1026.54 1026.03
1027.73 1027.49 1027.79 1027.99 1028.12 1028.44 1028.77 1029.17 1029.52 1029.74 1029.88 1030.01 1030.25 1030.37 1030.23 1029.96 1030.04 1029.85 1029.80 1029.75 1029.50 1028.93 1028.52 1028.39 1028.40 1028.47 1028.37 1027.98 1027.97 1027.67 1027.18 1027.35 1027.17 1027.21 1026.85 1026.66 1026.63 1025.87
1027.04 1027.15 1027.41 1027.72 1028.03 1028.38 1028.90 1029.37 1029.72 1030.07 1030.26 1030.32 1030.51 1030.62 1030.59 1030.37 1030.55 1030.29 1030.19 1030.09 1029.87 1029.46 1029.12 1028.83 1028.62 1028.39 1027.90 1027.52 1027.68 1027.66 1027.23 1026.71 1026.63 1026.34 1026.19 1026.44 1026.15 1025.73
1026.66 1027.00 1027.32 1027.68 1028.06 1028.46 1029.00 1029.49 1029.90 1030.24 1030.36 1030.38 1030.62 1030.79 1030.92 1030.75 1030.64 1030.53 1030.42 1030.49 1030.14 1029.79 1029.48 1029.12 1028.79 1028.39 1027.99 1027.83 1027.81 1027.65 1027.36 1026.99 1026.45 1025.98 1025.84 1026.15 1025.99 1025.70
1026.37 1026.76 1027.18 1027.62 1028.03 1028.44 1028.79 1029.22 1029.43 1029.73 1030.12 1030.44 1030.62 1030.84 1031.07 1031.00 1030.80 1030.67 1030.53 1030.38 1030.24 1030.15 1029.82 1029.74 1029.47 1029.06 1028.64 1028.33 1028.11 1027.86 1027.64 1027.30 1026.63 1026.28 1026.21 1025.85 1025.70 1025.47
Wind_Speed
5 5 4 5 4 4 3 2 2 3 4 5 4 5 5 4 11 6 8 18 19 17 19 22 21 22 21 22 22 21 20 19 19 19 16 14 14 11
4 5 5 4 4 2 3 3 3 3 3 5 4 5 5 6 10 6 8 13 17 17 21 22 24 25 25 24 24 23 22 20 19 19 17 15 13 13
5 6 7 7 5 5 4 3 3 3 3 4 4 4 6 8 7 5 6 6 6 16 18 20 22 24 25 26 26 26 24 23 22 21 21 18 12 10
7 7 7 7 7 7 5 5 5 5 3 5 3 3 8 9 8 5 7 6 4 10 14 18 22 23 24 25 25 26 26 25 23 23 23 23 21 19
7 8 8 9 8 7 8 6 5 7 5 3 4 4 7 10 9 9 6 6 6 9 9 15 20 23 23 24 24 25 26 26 23 22 23 23 22 21
7 9 8 7 6 7 7 9 8 7 6 5 4 5 8 10 7 7 5 6 5 7 10 8 15 20 22 23 24 25 26 25 24 22 23 23 23 23
6 9 6 6 6 8 5 6 8 7 7 6 7 6 7 7 8 7 5 3 3 7 5 6 4 7 9 15 19 24 25 25 24 23 22 23 24 25
6 6 7 8 5 7 10 11 10 5 8 7 6 7 8 8 8 8 5 5 2 8 5 6 6 6 5 7 22 22 23 24 25 25 22 21 24 25
6 5 5 6 6 5 6 10 12 13 12 7 6 4 4 6 8 10 9 7 4 6 5 4 6 4 5 8 19 22 21 22 23 25 25 19 19 24
7 5 4 3 4 3 4 4 5 3 3 3 2 2 3 4 7 8 9 2 7 6 9 3 3 3 6 6 21 21 22 22 22 22 23 23 21 19
5 3 4 3 9 8 4 5 4 4 1 0 1 6 10 14 15 8 10 8 4 3 8 2 4 4 4 6 7 21 22 22 21 21 22 23 21 20
7 4 9 6 10 11 5 4 4 1 3 4 2 5 5 7 12 6 6 7 4 4 4 5 5 4 3 3 7 7 7 20 21 22 19 21 20 8
4 5 2 8 10 10 9 4 1 5 2 2 2 2 3 3 1 2 3 3 3 2 4 2 4 5 3 3 3 6 4 6 7 10 17 21 22 17
5 4 3 7 10 9 5 5 4 2 2 3 3 2 2 3 3 0 3 2 1 4 4 3 2 2 3 4 4 6 5 8 7 8 7 11 15 20
5 8 7 5 1 4 6 7 6 3 3 3 2 2 1 2 4 4 0 4 3 2 1 1 2 3 3 2 2 5 6 5 9 8 7 7 6 7
6 4 3 4 1 3 3 3 1 2 2 2 2 1 3 2 3 2 2 2 2 2 3 3 1 4 3 2 3 3 6 4 7 8 5 7 7 7
5 2 2 4 4 3 2 2 1 1 2 1 3 3 2 4 2 3 3 3 2 1 3 4 6 5 2 2 3 2 3 3 5 7 5 6 6 6
3 3 2 2 2 2 3 2 2 2 2 2 3 3 3 2 3 3 5 3 2 3 2 2 5 4 1 3 7 1 3 2 3 5 4 3 3 5
2 2 2 3 2 3 2 3 3 1 2 2 3 3 4 3 3 3 4 5 6 3 3 3 5 4 3 2 4 8 2 2 3 3 3 2 2 6
3 2 2 2 2 3 2 3 2 2 2 2 3 2 3 2 2 3 4 2 5 4 4 4 3 3 1 3 3 3 8 1 1 2 2 2 3 14
4 2 3 3 2 3 3 3 3 3 2 1 2 2 3 2 2 2 3 4 4 4 4 4 5 7 4 2 4 3 3 8 11 3 2 2 3 2
3 3 3 3 3 4 3 3 4 3 3 2 2 3 2 2 2 2 2 2 2 2 4 4 7 7 6 6 5 3 2 3 10 12 6 3 2 3
3 3 3 3 3 3 3 3 1 3 3 2 1 2 1 3 1 2 2 2 3 3 4 5 6 7 7 7 7 3 6 6 5 5 4 14 16 19
Wind_Direction
50 36 354 23 344 343 13 3 343 314 308 14 339 16 26 41 30 5 55 42 23 25 37 35 32 33 31 23 20 17 12 6 358 354 346 324 306 290
49 45 20 358 318 3 358 332 326 302 286 354 341 348 18 29 18 17 26 50 25 40 45 42 39 36 35 30 24 20 16 12 9 1 352 341 325 296
36 49 22 349 358 356 357 331 353 328 320 321 309 324 39 41 7 10 42 68 37 46 47 47 45 41 37 35 27 25 24 21 20 17 13 8 350 334
46 48 29 9 6 358 336 352 350 334 339 305 323 341 59 26 359 358 24 42 68 49 54 46 44 43 40 36 30 27 25 23 25 25 24 22 23 28
53 57 32 26 14 351 323 17 7 335 308 338 309 25 48 26 355 351 24 35 24 33 47 63 57 45 42 36 32 29 26 23 24 35 35 32 32 35
78 75 59 51 19 350 6 7 3 342 342 355 12 22 38 19 358 346 342 57 22 13 2 78 64 48 43 37 33 30 27 25 25 33 41 41 40 42
70 98 77 81 62 45 42 21 17 355 13 354 28 19 27 8 356 333 333 355 90 38 346 24 70 67 35 37 34 29 26 24 26 28 44 48 49 49
45 53 80 43 74 72 65 59 48 28 18 9 37 23 19 0 336 326 330 349 9 33 331 30 5 80 54 27 41 34 27 23 29 30 29 50 50 47
51 23 55 54 17 9 46 61 64 43 38 40 43 26 358 333 327 324 329 328 63 356 347 32 7 26 76 46 42 34 30 28 31 30 30 36 51 52
59 20 68 44 16 21 38 42 74 83 51 45 74 276 262 304 344 325 326 330 108 47 14 14 329 334 76 41 37 37 26 27 28 37 33 32 36 47
90 73 54 20 40 40 73 63 68 355 165 104 16 34 34 32 26 2 8 14 25 26 17 322 333 331 61 55 28 28 25 22 22 25 37 39 40 42
132 90 65 66 52 56 36 61 54 334 353 2 30 27 47 40 40 36 15 20 12 16 341 354 344 349 360 59 38 18 10 17 14 13 31 43 46 38
132 106 59 63 62 58 66 59 320 294 330 27 48 29 5 3 13 43 63 55 41 22 310 7 358 348 21 342 30 13 24 5 3 4 7 37 57 54
111 103 98 76 66 58 50 31 353 305 45 34 41 18 14 330 320 182 136 122 157 166 289 0 28 21 14 354 357 352 353 22 360 2 350 33 31 55
87 115 129 121 132 77 49 38 16 3 26 42 34 355 289 302 332 343 73 150 205 198 311 15 79 354 25 52 339 357 358 12 2 354 351 23 20 57
109 143 182 143 81 176 212 80 54 20 51 22 340 314 329 17 1 329 354 7 58 358 343 353 212 88 16 56 60 358 8 5 352 348 352 1 27 66
142 143 194 205 194 182 147 152 16 123 66 65 359 347 33 351 15 345 346 350 44 25 353 2 16 79 52 58 43 23 354 345 344 345 358 358 11 23
198 206 157 162 130 135 132 114 88 43 17 48 29 357 8 25 352 30 13 357 10 354 28 38 15 3 40 359 92 55 5 360 325 349 345 15 341 346
247 160 146 138 153 116 105 96 105 21 39 44 60 8 342 10 5 26 35 10 347 353 13 48 56 21 6 3 297 66 106 342 323 342 336 343 332 334
262 149 142 146 165 133 124 123 116 114 59 83 62 55 337 11 24 2 55 359 332 348 5 23 46 16 298 230 245 268 10 176 237 279 293 315 283 332
212 147 149 138 131 110 94 73 76 61 11 16 99 71 338 2 38 352 9 344 326 11 351 5 348 310 269 319 6 316 284 348 349 298 276 50 291 306
151 160 139 138 137 124 135 150 138 172 207 192 115 105 7 319 35 348 14 332 332 357 333 0 348 334 331 336 332 304 296 326 329 336 28 178 162 327
158 155 142 133 125 134 155 176 218 134 92 95 49 85 108 305 11 328 351 343 356 339 359 0 339 340 336 334 330 328 347 326 326 349 345 339 347 332